Regional Weather Roundup
Issued by NWS

Home | Current Version | Previous Version | Text Only | Print | Product List | Glossary Off
Versions: 1 2 3 4 5 6 7 8 9 10 11 12 13 14 15 16 17 18 19 20 21 22 23 24 25 26 27 28 29 30 31 32 33 34 35 36 37 38 39 40 41 42 43 44 45 46 47 48 49 50

000
ASUS43 KDMX 230008
RWRIA

WEATHER ROUNDUP FOR IOWA
NATIONAL WEATHER SERVICE DES MOINES IA
700 PM CDT FRI JUL 22 2016

NOTE: "FAIR" INDICATES FEW OR NO CLOUDS BELOW 12,000 FEET WITH NO
SIGNIFICANT WEATHER AND/OR OBSTRUCTIONS TO VISIBILITY.

* - THESE STATIONS ARE NOT NWS STATIONS...THUS NOT UNDER NWS
QUALITY CONTROL.  THEY ALSO DO NOT REPORT WEATHER SUCH
AS PRECIPITATION OR FOG.

IAZ001>003-012>014-020>022-031>034-043>046-230100-
   NORTHWEST IOWA

CITY           SKY/WX    TMP DP  RH WIND       PRES   REMARKS
CARROLL *      SUNNY     88  79  74 S5        29.94F HX 102
CHEROKEE *     MOSUNNY   90  79  70 S5        29.94F HX 105
DENISON *      MOSUNNY   88  81  79 S6        29.92F HX 105
LE MARS *      SUNNY     91  79  66 SE9       29.93F HX 107
SHELDON *      SUNNY     86  82  89 E10G18    29.95F HX 105
SIOUX CITY     MOSUNNY   93  77  59 SE6       29.91F HX 107
6HR MIN TEMP:  92; 6HR MAX TEMP:  95;

SPENCER        PTSUNNY   87  80  79 NE10      29.97F HX 103
6HR MIN TEMP:  86; 6HR MAX TEMP:  90;

STORM LAKE *   MOSUNNY   88  81  79 SE5       29.97S HX 105
$$

IAZ055>058-069>071-079>083-090>094-230100-
   SOUTHWEST IOWA

CITY           SKY/WX    TMP DP  RH WIND       PRES   REMARKS
ATLANTIC *     CLOUDY    90  79  70 SE5       29.94R HX 105
CLARINDA *       N/A     90  81  74 MISG      29.94S HX 108
COUNCIL BLFS * MOSUNNY   90  82  79 SE8       29.91F HX 111
CRESTON *      CLOUDY    88  79  74 SE6       29.98S HX 102
HARLAN  *      MOSUNNY   88  81  79 SE5       29.96F HX 105
LAMONI         CLOUDY    85  78  80 SE6       29.97F HX  96
6HR MIN TEMP:  82; 6HR MAX TEMP:  90;

RED OAK *      PTSUNNY   90  81  74 SE9       29.92S HX 108
SHENANDOAH *   CLOUDY    88  82  84 SE8       29.91S HX 108
$$

IAZ047>049-059>061-072>074-084-230100-
   CENTRAL IOWA

CITY           SKY/WX    TMP DP  RH WIND       PRES   REMARKS
AMES           SUNNY     89  80  74 SE6       29.95F HX 106
6HR MIN TEMP:  87; 6HR MAX TEMP:  91;

ANKENY *         N/A    N/A N/A N/A MISG        N/A
BOONE *        SUNNY     88  79  74 SE9       29.95F HX 102
CHARITON *       N/A    N/A N/A N/A MISG        N/A
DES MOINES     MOSUNNY   90  77  65 S8        29.95S HX 103
6HR MIN TEMP:  88; 6HR MAX TEMP:  92;

GRINNELL*      SUNNY     86  76  70 SE7       29.99S HX  96
KNOXVILLE *    MOSUNNY   88  77  70 S8        29.95S HX 100
MARSHALLTOWN   PTSUNNY   86  80  82 SE9       29.96S HX 101
6HR MIN TEMP:  84; 6HR MAX TEMP:  89;

NEWTON *       SUNNY     86  81  84 SE6       29.96F HX 102
PELLA *        SUNNY     89  77  67 SE5       29.98S HX 100
PERRY *          N/A     89  82  81 SE5       29.95R HX 110
$$

IAZ004>006-015-016-023>025-035-036-230100-
   NORTH CENTRAL IOWA

CITY           SKY/WX    TMP DP  RH WIND       PRES   REMARKS
ALGONA *       MOSUNNY   86  79  79 E7        29.98F HX  99
ESTHERVILLE    PTSUNNY   85  80  85 E9        29.98F HX  99
6HR MIN TEMP:  82; 6HR MAX TEMP:  86;

FORT DODGE *   PTSUNNY   90  79  70 CALM      29.96S HX 105
MASON CITY     PTSUNNY   86  79  79 E3        30.00S HX  99
6HR MIN TEMP:  84; 6HR MAX TEMP:  89;

FOREST CITY *    N/A     86  77  74 SE6       29.99S HX  97
IOWA FALLS *     N/A     89  78  70 SE5       29.99S HX 102
$$

IAZ007>011-017>019-026>030-037>042-050>054-066-230100-
   NORTHEAST IOWA

CITY           SKY/WX    TMP DP  RH WIND       PRES   REMARKS
CEDAR RAPIDS   SUNNY     85  81  88 S5        29.97F HX 100
6HR MIN TEMP:  84; 6HR MAX TEMP:  88;

CHARLES CITY * LGT RAIN  82  82 100 E3        30.00R HX  97
CLINTON *      SUNNY     84  78  82 CALM      29.99F HX  95
DECORAH *      MOSUNNY   84  79  84 S5        29.99S HX  96
DUBUQUE        CLOUDY    83  77  82 SW5       30.00F HX  92
6HR MIN TEMP:  80; 6HR MAX TEMP:  87;

MONTICELLO *   MOSUNNY   84  79  84 S6        29.99S HX  96
OELWEIN *      MOSUNNY   86  79  79 E7        30.00S HX  99
WATERLOO       CLOUDY    87  77  72 SE5       29.96S HX  99
6HR MIN TEMP:  86; 6HR MAX TEMP:  89;

$$

IAZ064-065-067-068-078-230100-
   EAST CENTRAL IOWA

CITY           SKY/WX    TMP DP  RH WIND       PRES   REMARKS
DAVENPORT      SUNNY     85  76  74 W3        29.99F HX  94
6HR MIN TEMP:  82; 6HR MAX TEMP:  88;

IOWA CITY      SUNNY     86  78  77 S6        29.98F HX  98
6HR MIN TEMP:  81; 6HR MAX TEMP:  88;

MT. PLEASANT * MOSUNNY   88  80  77 CALM      29.98F HX 105
MUSCATINE *    SUNNY     86  77  74 CALM      29.98S HX  97
QUAD CITIES    MOSUNNY   87  76  69 SW5       29.97F HX  97
6HR MIN TEMP:  84; 6HR MAX TEMP:  90;

$$

IAZ062-063-075>077-085>089-095>099-230100-
   SOUTHEAST IOWA

CITY           SKY/WX    TMP DP  RH WIND       PRES   REMARKS
BURLINGTON     SUNNY     85  78  80 S3        29.98F HX  96
6HR MIN TEMP:  81; 6HR MAX TEMP:  88;

FAIRFIELD *    MOSUNNY   86  77  74 SW3       29.98F HX  97
KEOKUK *       SUNNY     86  77  74 S5        29.98S HX  97
CENTERVILLE *    N/A     86  77  74 CALM      30.00F HX  97
OTTUMWA        CLOUDY    86  77  74 S5        29.96F HX  97
6HR MIN TEMP:  85; 6HR MAX TEMP:  88;

WASHINGTON *   PTSUNNY   84  81  89 SE5       30.00R HX  98
$$

ABBREVIATIONS USED IN REMARKS
   TC - TEMPERATURES IN CELSIUS
  WCI - WIND CHILL INDEX
   HX - HEAT INDEX
  VSB - VISIBILITY
$$




USA.gov is the U.S. government's official web portal to all federal, state and local government web resources and services.